Погода в Краснодарском

Россия / Краснодарский край     45°16′58″N   38°18′54″E
темп.,
°C
ветер,
м/с
пор.,
м/с
влажн.,
%
обл.,
%
осадки,
мм/ч
давл.,
гПа
погр.,
м
1 марта, пн
пн100:00+3з239297 0.1 102273
03:00+3зюз248695 0.2 102396
06:00+3юз349097 0.1 1023117
09:00+4зюз228698 0.3 1025158
12:00+6зсз3376100 0.4 1025689
15:00+6зсз3371100 0.7 1025774
18:00+5зсз2372100 0.0 1026162
21:00+4ссв2481100 0.0 1027281
2 марта, вт
вт200:00+2с128697 0.0 102824
03:00+2с128498 0.0 102997
06:00+1с118891 0.0 102922
09:00+2зюз117860 0.0 1029182
12:00+6з33616 0.0 1028880
15:00+7з565826 0.0 10271228
18:00+4зсз57704 0.0 1025502
21:00+3юз5117535 0.0 1025435
3 марта, ср
ср300:00+3юз6138090 0.0 1023637
03:00+5юз8147891 0.1 1021879
06:00+5зюз7138273 0.1 1020803
09:00+4з7129386 1.6 1020754
12:00+3сз4796100 1.5 1021505
15:00+6сз676786 1.8 10221138
18:00+4сз476889 0.1 1023739
21:00+2зсз237853 0.1 102740
4 марта, чт
чт400:00+1с22765 0.0 102722
03:00+1зсз11722 0.0 102822
06:00+1юз12730 0.0 102722
09:00+3ююз23650 0.0 1028183
12:00+6юз33490 0.0 1026834
15:00+8юз34410 0.0 10241206
18:00+6зюз47580 0.0 1022232
21:00+3юз35680 0.0 1022122
5 марта, пт
пт500:00+1ююз34670 0.0 102274
03:00+1юз35740 0.0 102194
06:00+1ююз35760 0.0 102094
09:00+5ююз611720 0.0 1021689
12:00+9ююз710530 0.0 10201088
15:00+10ююз811520 0.0 10191071
18:00+7ююз613710 0.0 1019758
21:00+6ююз616787 0.0 1019598